This is the latest recevied weather packets stored in our database for station/object IZ1UQG-1. If no packets are shown the sender has not sent any weather packets the latest 10 day(s).
| Time | Temp. | Humidity | Pressure | Rain* | Wind** | Luminosity | Snow |
|---|---|---|---|---|---|---|---|
| 1778129032 | 10° C | 83% | 1013.5 hPa | 115.32 mm | - | - | - |
| 1778128732 | 10° C | 83% | 1013.4 hPa | 121.67 mm | - | - | - |
| 1778128431 | 10° C | 83% | 1013.5 hPa | 124.21 mm | - | - | - |
| 1778128132 | 10° C | 83% | 1013.4 hPa | 127.76 mm | - | - | - |
| 1778127832 | 10° C | 83% | 1013.3 hPa | 113.79 mm | - | - | - |
| 1778127532 | 10° C | 83% | 1013.4 hPa | 122.68 mm | - | - | - |
| 1778127232 | 10.56° C | 83% | 1013.2 hPa | 114.81 mm | - | - | - |
| 1778126933 | 10.56° C | 83% | 1013.5 hPa | 121.67 mm | - | - | - |
| 1778126632 | 10.56° C | 83% | 1013.3 hPa | 114.3 mm | - | - | - |
| 1778126332 | 10.56° C | 83% | 1013.4 hPa | 108.2 mm | - | - | - |
| 1778126032 | 10.56° C | 83% | 1013.3 hPa | 121.67 mm | - | - | - |
| 1778125732 | 10.56° C | 82% | 1013.4 hPa | 120.14 mm | - | - | - |
| 1778125432 | 10.56° C | 83% | 1013.2 hPa | 120.65 mm | - | - | - |
| 1778125132 | 10.56° C | 83% | 1013.2 hPa | 119.63 mm | - | - | - |
| 1778124832 | 10.56° C | 83% | 1013.1 hPa | 123.19 mm | - | - | - |
| 1778124532 | 10.56° C | 83% | 1013.1 hPa | 120.14 mm | - | - | - |
| 1778124232 | 10.56° C | 83% | 1013.1 hPa | 120.65 mm | - | - | - |
| 1778123932 | 10.56° C | 83% | 1013 hPa | 136.14 mm | - | - | - |
| 1778123632 | 10.56° C | 83% | 1013 hPa | 126.75 mm | - | - | - |
| 1778123332 | 10.56° C | 83% | 1013 hPa | 131.32 mm | - | - | - |
| 1778123032 | 10.56° C | 83% | 1013 hPa | 130.3 mm | - | - | - |
| 1778122732 | 11.11° C | 83% | 1013 hPa | 121.16 mm | - | - | - |
| 1778122432 | 11.11° C | 83% | 1013 hPa | 129.79 mm | - | - | - |
| 1778122132 | 11.11° C | 82% | 1013 hPa | 136.14 mm | - | - | - |
| 1778121832 | 11.11° C | 82% | 1013.2 hPa | 137.16 mm | - | - | - |
* Rain latest hour (hover to see other rain measurements)
** Current wind speed in m/s (hover to see current wind gust speed)